Regional Weather Roundup
Issued by NWS

Home | Current Version | Previous Version | Text Only | Print | Product List | Glossary Off
Versions: 1 2 3 4 5 6 7 8 9 10 11 12 13 14 15 16 17 18 19 20 21 22 23 24 25 26 27 28

000
ASUS45 KCYS 210310
RWRWY

WYOMING REGIONAL WEATHER ROUNDUP
NATIONAL WEATHER SERVICE CHEYENNE WY
900 PM MDT SUN AUG 20 2017

NOTE:  "FAIR" INDICATES FEW OR NO CLOUDS BELOW 12,000 FEET
WITH NO SIGNIFICANT WEATHER AND/OR OBSTRUCTIONS TO VISIBILITY.

WYZ001-210400-
YELLOWSTONE NATIONAL PARK

CITY           SKY/WX    TMP DP  RH WIND       PRES   REMARKS
LK YELLOWSTONE   N/A     52  40  63 CALM      30.27R
W YELLOWSTONE  NOT AVBL

$$
WYZ002>013-054>058-071-098>099-210400-
NORTHERN WYOMING

CITY           SKY/WX    TMP DP  RH WIND       PRES   REMARKS
JACKSON        FAIR      63  26  24 NW5       30.17R
CODY           FAIR      68  40  35 CALM      30.09R
GREYBULL       FAIR      78  36  21 NW16      29.96R
WORLAND        FAIR      74  38  27 NW7       29.97R
SHERIDAN       FAIR      69  42  37 W10       30.01R
BUFFALO        FAIR      73  37  27 NW18G28   30.06R
GILLETTE       FAIR      77  33  20 W3        29.99R
HULETT         FAIR      70  50  49 SE6       30.00R
NEWCASTLE      FAIR      73  46  38 E25G33    30.01R

$$
WYZ014>020-022>026-101>103-210400-
CENTRAL WYOMING

CITY           SKY/WX    TMP DP  RH WIND       PRES   REMARKS
BIG PINEY      FAIR      63  30  28 N10       30.21R
PINEDALE       FAIR      59  32  36 NW7       30.23R
DUBOIS         FAIR      61  21  21 NW9       30.19R
LANDER           N/A    N/A N/A N/A MISG      30.07R
RIVERTON       FAIR      74  34  23 N12       30.05R
CASPER         FAIR      75  36  24 S8        30.03R
DOUGLAS        FAIR      74  47  38 SE9       30.04R

$$
WYZ021-027>030-104>119-210400-
SOUTHERN WYOMING

CITY           SKY/WX    TMP DP  RH WIND       PRES   REMARKS
EVANSTON       FAIR      70  32  24 W9        30.22R
KEMMERER         N/A    N/A N/A N/A N9        30.24R
FORT BRIDGER   CLOUDY    69  37  31 S12       30.25R
ROCK SPRINGS   FAIR      70  35  27 SW15      30.18R
RAWLINS        FAIR      70  35  27 W8        30.18R
SARATOGA       FAIR      63  37  39 SE6       30.23R
LARAMIE        FAIR      64  38  38 S6        30.23R
CHEYENNE       FAIR      69  49  48 S6        30.17R
TORRINGTON     FAIR      72  58  61 E12       29.99R
PINE BLUFFS    FAIR      70  55  60 S6        30.10S

$$




USA.gov is the U.S. government's official web portal to all federal, state and local government web resources and services.